Time,TemperatureF,DewpointF,PressureIn,WindDirection,WindDirectionDegrees,WindSpeedMPH,WindSpeedGustMPH,Humidity,HourlyPrecipIn,Conditions,Clouds,dailyrainin,SoftwareType,DateUTC
2013-02-02 00:00:00,36.1,31.0,29.88,West,267,0.0,5.0,80,0.00,,,0.00,weatherlink.com 1.10,2013-02-02 00:00:00,
2013-02-02 00:15:00,36.1,31.0,29.89,West,281,1.0,7.0,80,0.00,,,0.00,weatherlink.com 1.10,2013-02-02 00:15:00,
2013-02-02 00:30:00,36.0,30.0,29.89,WNW,303,0.0,3.0,80,0.00,,,0.00,weatherlink.com 1.10,2013-02-02 00:30:00,
2013-02-02 00:45:00,35.9,31.0,29.90,WNW,287,2.0,4.0,81,0.00,,,0.00,weatherlink.com 1.10,2013-02-02 00:45:00,
2013-02-02 01:00:00,35.9,31.0,29.91,NW,326,1.0,4.0,81,0.00,,,0.00,weatherlink.com 1.10,2013-02-02 01:00:00,
2013-02-02 01:15:00,35.9,31.0,29.91,WSW,252,0.0,5.0,81,0.00,,,0.00,weatherlink.com 1.10,2013-02-02 01:15:00,
2013-02-02 01:31:00,35.9,31.0,29.92,WNW,300,1.0,5.0,81,0.00,,,0.00,weatherlink.com 1.10,2013-02-02 01:31:00,
2013-02-02 01:46:00,35.7,31.0,29.93,NNW,335,0.0,3.0,82,0.00,,,0.00,weatherlink.com 1.10,2013-02-02 01:46:00,
2013-02-02 02:01:00,35.5,31.0,29.93,NW,326,1.0,3.0,82,0.00,,,0.00,weatherlink.com 1.10,2013-02-02 02:01:00,
2013-02-02 02:16:00,35.4,30.0,29.95,North,11,0.0,3.0,82,0.00,,,0.00,weatherlink.com 1.10,2013-02-02 02:16:00,
2013-02-02 02:31:00,35.2,31.0,29.96,West,278,2.0,3.0,83,0.00,,,0.00,weatherlink.com 1.10,2013-02-02 02:31:00,
2013-02-02 02:46:00,35.2,31.0,29.97,West,281,1.0,3.0,83,0.00,,,0.00,weatherlink.com 1.10,2013-02-02 02:46:00,
2013-02-02 03:01:00,35.1,31.0,29.97,WSW,252,1.0,2.0,84,0.00,,,0.00,weatherlink.com 1.10,2013-02-02 03:01:00,
2013-02-02 03:16:00,35.1,31.0,29.98,WNW,291,1.0,2.0,84,0.00,,,0.00,weatherlink.com 1.10,2013-02-02 03:16:00,
2013-02-02 03:31:00,35.2,31.0,29.99,WNW,293,1.0,4.0,84,0.00,,,0.00,weatherlink.com 1.10,2013-02-02 03:31:00,
2013-02-02 03:46:00,35.1,31.0,29.99,SW,231,0.0,5.0,84,0.00,,,0.00,weatherlink.com 1.10,2013-02-02 03:46:00,
2013-02-02 04:01:00,34.8,30.0,30.00,NNW,343,0.0,3.0,84,0.00,,,0.00,weatherlink.com 1.10,2013-02-02 04:01:00,
2013-02-02 04:16:00,34.6,31.0,30.01,NW,308,2.0,3.0,85,0.00,,,0.00,weatherlink.com 1.10,2013-02-02 04:16:00,
2013-02-02 04:31:00,34.4,30.0,30.02,WNW,295,0.0,4.0,85,0.00,,,0.00,weatherlink.com 1.10,2013-02-02 04:31:00,
2013-02-02 04:46:00,34.4,31.0,30.02,West,277,1.0,4.0,86,0.00,,,0.00,weatherlink.com 1.10,2013-02-02 04:46:00,
2013-02-02 05:01:00,34.5,31.0,30.03,SW,236,1.0,4.0,86,0.00,,,0.00,weatherlink.com 1.10,2013-02-02 05:01:00,
2013-02-02 05:16:00,34.7,31.0,30.04,WNW,300,0.0,3.0,85,0.00,,,0.00,weatherlink.com 1.10,2013-02-02 05:16:00,
2013-02-02 05:31:00,34.5,31.0,30.04,WSW,248,0.0,3.0,85,0.00,,,0.00,weatherlink.com 1.10,2013-02-02 05:31:00,
2013-02-02 05:46:00,34.2,31.0,30.04,NW,318,1.0,3.0,86,0.00,,,0.00,weatherlink.com 1.10,2013-02-02 05:46:00,
2013-02-02 06:01:00,34.0,30.0,30.05,North,349,0.0,4.0,86,0.00,,,0.00,weatherlink.com 1.10,2013-02-02 06:01:00,
2013-02-02 06:16:00,34.1,31.0,30.05,NW,306,3.0,6.0,87,0.00,,,0.00,weatherlink.com 1.10,2013-02-02 06:16:00,
2013-02-02 06:31:00,34.1,31.0,30.07,NNE,32,0.0,4.0,87,0.00,,,0.00,weatherlink.com 1.10,2013-02-02 06:31:00,
2013-02-02 06:46:00,34.2,31.0,30.08,West,272,0.0,4.0,87,0.00,,,0.00,weatherlink.com 1.10,2013-02-02 06:46:00,
2013-02-02 07:01:00,34.0,31.0,30.08,WNW,301,0.0,2.0,87,0.00,,,0.00,weatherlink.com 1.10,2013-02-02 07:01:00,
2013-02-02 07:17:00,33.9,31.0,30.09,WNW,283,0.0,3.0,87,0.00,,,0.00,weatherlink.com 1.10,2013-02-02 07:17:00,
2013-02-02 07:32:00,33.7,30.0,30.11,WNW,301,1.0,3.0,87,0.00,,,0.00,weatherlink.com 1.10,2013-02-02 07:32:00,
2013-02-02 07:47:00,33.8,30.0,30.11,WSW,246,0.0,2.0,87,0.00,,,0.00,weatherlink.com 1.10,2013-02-02 07:47:00,
2013-02-02 08:02:00,33.5,30.0,30.12,WNW,300,0.0,2.0,87,0.00,,,0.00,weatherlink.com 1.10,2013-02-02 08:02:00,
2013-02-02 08:17:00,33.6,30.0,30.13,West,278,0.0,4.0,87,0.00,,,0.00,weatherlink.com 1.10,2013-02-02 08:17:00,
2013-02-02 08:32:00,33.6,30.0,30.13,WNW,288,0.0,2.0,88,0.00,,,0.00,weatherlink.com 1.10,2013-02-02 08:32:00,
2013-02-02 08:47:00,33.7,31.0,30.14,West,280,0.0,2.0,88,0.00,,,0.00,weatherlink.com 1.10,2013-02-02 08:47:00,
2013-02-02 09:02:00,34.7,31.0,30.15,WSW,250,0.0,2.0,87,0.00,,,0.00,weatherlink.com 1.10,2013-02-02 09:02:00,
2013-02-02 09:17:00,35.5,32.0,30.16,West,264,1.0,3.0,86,0.00,,,0.00,weatherlink.com 1.10,2013-02-02 09:17:00,
2013-02-02 09:32:00,36.1,32.0,30.17,WSW,238,3.0,6.0,85,0.00,,,0.00,weatherlink.com 1.10,2013-02-02 09:32:00,
2013-02-02 09:47:00,36.7,32.0,30.18,West,269,1.0,3.0,84,0.00,,,0.00,weatherlink.com 1.10,2013-02-02 09:47:00,
2013-02-02 10:02:00,37.6,33.0,30.18,WSW,242,2.0,4.0,82,0.00,,,0.00,weatherlink.com 1.10,2013-02-02 10:02:00,
2013-02-02 10:17:00,38.2,33.0,30.19,West,276,0.0,2.0,81,0.00,,,0.00,weatherlink.com 1.10,2013-02-02 10:17:00,
2013-02-02 10:32:00,39.0,33.0,30.19,NNW,330,0.0,5.0,80,0.00,,,0.00,weatherlink.com 1.10,2013-02-02 10:32:00,
2013-02-02 10:47:00,39.5,33.0,30.20,SSW,193,1.0,4.0,78,0.00,,,0.00,weatherlink.com 1.10,2013-02-02 10:47:00,
2013-02-02 11:02:00,40.1,33.0,30.21,West,270,2.0,2.0,77,0.00,,,0.00,weatherlink.com 1.10,2013-02-02 11:02:00,
2013-02-02 11:17:00,40.8,33.0,30.21,West,269,1.0,4.0,75,0.00,,,0.00,weatherlink.com 1.10,2013-02-02 11:17:00,
2013-02-02 11:32:00,41.4,34.0,30.21,NW,317,0.0,4.0,74,0.00,,,0.00,weatherlink.com 1.10,2013-02-02 11:32:00,
2013-02-02 11:47:00,41.8,33.0,30.21,NE,37,2.0,5.0,71,0.00,,,0.00,weatherlink.com 1.10,2013-02-02 11:47:00,
2013-02-02 12:02:00,42.2,34.0,30.21,West,274,2.0,6.0,72,0.00,,,0.00,weatherlink.com 1.10,2013-02-02 12:02:00,
2013-02-02 12:17:00,42.7,34.0,30.20,NNW,333,0.0,6.0,70,0.00,,,0.00,weatherlink.com 1.10,2013-02-02 12:17:00,
2013-02-02 12:33:00,43.1,34.0,30.21,NW,317,1.0,8.0,70,0.00,,,0.00,weatherlink.com 1.10,2013-02-02 12:33:00,
2013-02-02 12:48:00,43.3,33.0,30.21,WNW,287,3.0,9.0,67,0.00,,,0.00,weatherlink.com 1.10,2013-02-02 12:48:00,
2013-02-02 13:03:00,43.6,34.0,30.21,NNW,339,3.0,7.0,68,0.00,,,0.00,weatherlink.com 1.10,2013-02-02 13:03:00,
2013-02-02 13:18:00,43.7,33.0,30.21,North,352,2.0,9.0,66,0.00,,,0.00,weatherlink.com 1.10,2013-02-02 13:18:00,
2013-02-02 13:33:00,43.8,32.0,30.22,NNW,338,0.0,9.0,64,0.00,,,0.00,weatherlink.com 1.10,2013-02-02 13:33:00,
2013-02-02 13:48:00,44.1,31.0,30.22,NNE,30,3.0,7.0,61,0.00,,,0.00,weatherlink.com 1.10,2013-02-02 13:48:00,
2013-02-02 14:03:00,43.8,33.0,30.23,NNW,330,0.0,8.0,65,0.00,,,0.00,weatherlink.com 1.10,2013-02-02 14:03:00,
2013-02-02 14:18:00,43.8,32.0,30.23,NW,321,3.0,5.0,64,0.00,,,0.00,weatherlink.com 1.10,2013-02-02 14:18:00,
2013-02-02 14:33:00,43.8,33.0,30.24,WNW,288,1.0,6.0,65,0.00,,,0.00,weatherlink.com 1.10,2013-02-02 14:33:00,
2013-02-02 14:48:00,44.1,32.0,30.24,North,353,2.0,10.0,62,0.00,,,0.00,weatherlink.com 1.10,2013-02-02 14:48:00,
2013-02-02 15:03:00,44.5,32.0,30.24,NNW,339,0.0,6.0,61,0.00,,,0.00,weatherlink.com 1.10,2013-02-02 15:03:00,
2013-02-02 15:18:00,44.4,32.0,30.23,WNW,294,0.0,5.0,62,0.00,,,0.00,weatherlink.com 1.10,2013-02-02 15:18:00,
2013-02-02 15:33:00,44.1,32.0,30.24,North,6,6.0,6.0,62,0.00,,,0.00,weatherlink.com 1.10,2013-02-02 15:33:00,
2013-02-02 15:48:00,44.2,32.0,30.23,NW,316,4.0,4.0,62,0.00,,,0.00,weatherlink.com 1.10,2013-02-02 15:48:00,
2013-02-02 16:03:00,44.2,31.0,30.24,West,274,0.0,3.0,61,0.00,,,0.00,weatherlink.com 1.10,2013-02-02 16:03:00,
2013-02-02 16:18:00,43.7,31.0,30.24,West,259,1.0,5.0,62,0.00,,,0.00,weatherlink.com 1.10,2013-02-02 16:18:00,
2013-02-02 16:33:00,43.3,31.0,30.25,North,357,2.0,5.0,63,0.00,,,0.00,weatherlink.com 1.10,2013-02-02 16:33:00,
2013-02-02 16:48:00,42.9,31.0,30.25,WNW,293,2.0,4.0,63,0.00,,,0.00,weatherlink.com 1.10,2013-02-02 16:48:00,
2013-02-02 17:03:00,42.4,31.0,30.25,NW,322,1.0,4.0,65,0.00,,,0.00,weatherlink.com 1.10,2013-02-02 17:03:00,
2013-02-02 17:18:00,41.8,32.0,30.25,WNW,288,0.0,1.0,67,0.00,,,0.00,weatherlink.com 1.10,2013-02-02 17:18:00,
2013-02-02 17:33:00,41.0,31.0,30.25,WSW,248,0.0,0.0,68,0.00,,,0.00,weatherlink.com 1.10,2013-02-02 17:33:00,
2013-02-02 17:48:00,40.4,31.0,30.25,NW,304,0.0,1.0,70,0.00,,,0.00,weatherlink.com 1.10,2013-02-02 17:48:00,
2013-02-02 18:03:00,39.3,31.0,30.25,NW,304,0.0,0.0,71,0.00,,,0.00,weatherlink.com 1.10,2013-02-02 18:03:00,
2013-02-02 18:18:00,39.3,31.0,30.24,NW,304,0.0,0.0,73,0.00,,,0.00,weatherlink.com 1.10,2013-02-02 18:18:00,
2013-02-02 18:33:00,38.4,31.0,30.25,WNW,291,0.0,1.0,76,0.00,,,0.00,weatherlink.com 1.10,2013-02-02 18:33:00,
2013-02-02 18:48:00,38.9,31.0,30.24,West,276,0.0,2.0,74,0.00,,,0.00,weatherlink.com 1.10,2013-02-02 18:48:00,
2013-02-02 19:03:00,37.9,31.0,30.24,West,276,0.0,0.0,75,0.00,,,0.00,weatherlink.com 1.10,2013-02-02 19:03:00,
2013-02-02 19:19:00,37.3,31.0,30.25,West,276,0.0,0.0,77,0.00,,,0.00,weatherlink.com 1.10,2013-02-02 19:19:00,
2013-02-02 19:33:00,36.9,31.0,30.24,West,260,0.0,3.0,78,0.00,,,0.00,weatherlink.com 1.10,2013-02-02 19:33:00,
2013-02-02 19:48:00,37.4,31.0,30.23,West,260,0.0,0.0,78,0.00,,,0.00,weatherlink.com 1.10,2013-02-02 19:48:00,
2013-02-02 20:03:00,36.9,31.0,30.22,WNW,287,0.0,0.0,78,0.00,,,0.00,weatherlink.com 1.10,2013-02-02 20:03:00,
2013-02-02 20:18:00,36.9,31.0,30.22,NNW,328,0.0,0.0,78,0.00,,,0.00,weatherlink.com 1.10,2013-02-02 20:18:00,
2013-02-02 20:33:00,37.1,31.0,30.21,WNW,298,0.0,0.0,77,0.00,,,0.00,weatherlink.com 1.10,2013-02-02 20:33:00,
2013-02-02 20:48:00,36.6,30.0,30.21,WNW,298,0.0,0.0,78,0.00,,,0.00,weatherlink.com 1.10,2013-02-02 20:48:00,
2013-02-02 21:03:00,36.4,30.0,30.20,WNW,298,0.0,0.0,78,0.00,,,0.00,weatherlink.com 1.10,2013-02-02 21:03:00,
2013-02-02 21:18:00,38.3,32.0,30.19,WSW,243,0.0,2.0,78,0.00,,,0.00,weatherlink.com 1.10,2013-02-02 21:18:00,
2013-02-02 21:33:00,39.9,32.0,30.20,West,271,3.0,3.0,73,0.00,,,0.00,weatherlink.com 1.10,2013-02-02 21:33:00,
2013-02-02 21:48:00,40.2,32.0,30.20,WSW,248,0.0,3.0,72,0.00,,,0.00,weatherlink.com 1.10,2013-02-02 21:48:00,
2013-02-02 22:03:00,40.8,32.0,30.19,West,271,4.0,5.0,72,0.00,,,0.00,weatherlink.com 1.10,2013-02-02 22:03:00,
2013-02-02 22:18:00,41.5,33.0,30.19,West,279,1.0,5.0,71,0.00,,,0.00,weatherlink.com 1.10,2013-02-02 22:18:00,
2013-02-02 22:33:00,41.5,33.0,30.18,WNW,290,2.0,6.0,71,0.00,,,0.00,weatherlink.com 1.10,2013-02-02 22:33:00,
2013-02-02 22:48:00,41.9,33.0,30.17,WNW,288,0.0,5.0,71,0.00,,,0.00,weatherlink.com 1.10,2013-02-02 22:48:00,
2013-02-02 23:03:00,42.3,34.0,30.18,West,260,9.0,9.0,71,0.00,,,0.00,weatherlink.com 1.10,2013-02-02 23:03:00,
2013-02-02 23:18:00,42.4,34.0,30.17,SW,215,2.0,6.0,72,0.00,,,0.00,weatherlink.com 1.10,2013-02-02 23:18:00,
2013-02-02 23:33:00,42.5,35.0,30.15,West,260,2.0,7.0,74,0.00,,,0.00,weatherlink.com 1.10,2013-02-02 23:33:00,
2013-02-02 23:48:00,42.7,35.0,30.15,West,262,5.0,10.0,75,0.00,,,0.00,weatherlink.com 1.10,2013-02-02 23:48:00,